N750SB EHAM-EDDM

Flight info

Callsign N750SB
Flight time N/A
Altitude 35000
Route EDUPO Z739 MISGO DCT DOJOH DCT DODEN/N0496F330 DCT TABUM DCT BOMBI T104 HAREM/N0512F270 T104 ROKIL ROKIL1A
Aircraft C750/M-SBDE3FGHRWXY/S

Departure

Time 2026-04-30 19:09
Airport Amsterdam Airport Schiphol (EHAM)

Arrival

Time N/A
Airport Munich Airport (EDDM)
Time Latitude Longitude Altitude Speed Heading
2026-04-30 18:40 52.30040 4.78826 4 ft 0 kts 136°
2026-04-30 18:55 52.30052 4.78807 5 ft 2 kts 136°
2026-04-30 18:55 52.30076 4.78782 6 ft 2 kts 217°
2026-04-30 18:55 52.30077 4.78783 6 ft 0 kts 224°
2026-04-30 18:57 52.30071 4.78768 7 ft 2 kts 237°
2026-04-30 18:57 52.30064 4.78750 7 ft 4 kts 237°
2026-04-30 18:58 52.30043 4.78681 8 ft 0 kts 255°
2026-04-30 18:58 52.30041 4.78663 8 ft 3 kts 264°
2026-04-30 18:58 52.30041 4.78642 9 ft 5 kts 279°
2026-04-30 18:59 52.30051 4.78612 10 ft 0 kts 309°
2026-04-30 19:02 52.30074 4.78569 12 ft 5 kts 311°
2026-04-30 19:03 52.30147 4.78506 11 ft 1 kts 39°
2026-04-30 19:08 52.30150 4.78511 11 ft 11 kts 39°
2026-04-30 19:09 52.31251 4.80093 264 ft 153 kts 45°
2026-04-30 19:09 52.32100 4.81398 551 ft 184 kts 52°
2026-04-30 19:09 52.32621 4.83356 991 ft 195 kts 83°
2026-04-30 19:10 52.31807 4.87354 2824 ft 193 kts 124°
2026-04-30 19:10 52.30396 4.91260 4634 ft 216 kts 113°
2026-04-30 19:11 52.29973 4.93785 5125 ft 244 kts 107°
2026-04-30 19:11 52.29060 4.99156 7091 ft 248 kts 108°
2026-04-30 19:11 52.28576 5.01900 8090 ft 253 kts 108°
2026-04-30 19:12 52.28089 5.04701 9097 ft 259 kts 108°
2026-04-30 19:12 52.27592 5.07559 10029 ft 265 kts 107°
2026-04-30 19:12 52.27070 5.10539 10502 ft 285 kts 107°
2026-04-30 19:13 52.25877 5.17345 10936 ft 331 kts 107°
2026-04-30 19:13 52.24600 5.24534 12460 ft 334 kts 109°
2026-04-30 19:13 52.23509 5.27825 12960 ft 333 kts 124°
2026-04-30 19:14 52.22134 5.30944 13013 ft 338 kts 125°
2026-04-30 19:14 52.20768 5.34076 13013 ft 340 kts 125°
2026-04-30 19:14 52.19365 5.37179 13010 ft 340 kts 128°
2026-04-30 19:14 52.17862 5.40151 13008 ft 340 kts 129°
2026-04-30 19:15 52.16362 5.43132 13085 ft 341 kts 128°
2026-04-30 19:15 52.13417 5.49210 13311 ft 345 kts 128°
2026-04-30 19:15 52.11928 5.52271 13313 ft 345 kts 128°
2026-04-30 19:16 52.10442 5.55326 13313 ft 345 kts 127°
2026-04-30 19:16 52.08955 5.58381 13315 ft 345 kts 128°
2026-04-30 19:16 52.05963 5.64507 14720 ft 346 kts 128°
2026-04-30 19:17 52.04508 5.67481 15931 ft 328 kts 128°
2026-04-30 19:17 52.01625 5.73374 17273 ft 338 kts 128°
2026-04-30 19:17 52.00151 5.76379 18004 ft 342 kts 128°
2026-04-30 19:18 51.97665 5.81438 19146 ft 348 kts 128°
2026-04-30 19:18 51.95646 5.85540 20012 ft 354 kts 128°
2026-04-30 19:18 51.94100 5.88677 20699 ft 358 kts 127°
2026-04-30 19:19 51.92537 5.91846 21373 ft 362 kts 127°
2026-04-30 19:19 51.90939 5.95082 21664 ft 378 kts 127°
2026-04-30 19:19 51.87522 6.01982 22505 ft 397 kts 128°
2026-04-30 19:20 51.85785 6.05480 23103 ft 401 kts 128°
2026-04-30 19:20 51.84031 6.09017 23705 ft 405 kts 128°
2026-04-30 19:20 51.80471 6.16191 24739 ft 413 kts 128°
2026-04-30 19:21 51.78691 6.19776 25264 ft 415 kts 127°
2026-04-30 19:21 51.75046 6.27117 26297 ft 421 kts 127°
2026-04-30 19:22 51.71338 6.34581 27252 ft 429 kts 127°
2026-04-30 19:22 51.64691 6.44424 28687 ft 444 kts 149°
2026-04-30 19:23 51.57940 6.54242 30102 ft 448 kts 122°
2026-04-30 19:24 51.54485 6.62685 30962 ft 455 kts 124°